Home > Weather > Seattle > Past weeks

Flag for USA Past Weather in Seattle, Washington, USA — Yesterday and Last 2 Weeks

Now
65 °F

Clear.


Feels Like: 65 °F
Forecast: 63 / 82 °F
Wind: No wind

Location: Seattle Boeing Field

Current Time: Jul 29, 2016 at 5:09:56 AM

Latest Report: Jul 29, 2016 at 3:53 AM


Visibility: 10 mi

Pressure: 30.01 "Hg

Humidity: 73%

Dew Point: 56 °F

Location of SeattleLocation

Past Weather in Seattle — Graph

°F

Seattle Temperature Yesterday

Maximum temperature yesterday: 85 °F (at 4:53 PM)
Minimum temperature yesterday: 62 °F (at 5:53 AM)
Average temperature yesterday: 74 °F

High & Low Weather Summary for the Past Weeks

 TemperatureHumidityPressure
High85 °F (Jul 28, 4:53 PM)90% (Jul 22, 7:53 AM)30.27 "Hg (Jul 22, 7:53 AM)
Low58 °F (Jul 14, 5:53 AM)30% (Jul 20, 4:53 PM)29.88 "Hg (Jul 17, 6:53 PM)
Average69 °F61%30.09 "Hg
* Reported Jul 14 3:53 AM — Jul 29 3:53 AM, Seattle, Weather by CustomWeather, © 2016

Note: Actual official high and low records may vary slightly from our data, if they occured in-between our weather recording intervals... More about our weather records

Advertising

Seattle Weather History for the Previous 24 Hours

Scroll right to see more
 ConditionsComfort  
Time TempWeatherWind HumidityBarometerVisibility
3:53 AM
Fri, Jul 29
65 °FClear.No wind73%30.01 "Hg10 mi
2:53 AM66 °FClear.3 mph70%30.01 "Hg10 mi
1:53 AM68 °FClear.No wind68%30.01 "Hg10 mi
12:53 AM71 °FClear.No wind63%30.01 "Hg10 mi
11:53 PM
Thu, Jul 28
72 °FClear.No wind59%30.01 "Hg10 mi
10:53 PM73 °FClear.3 mph57%30.02 "Hg10 mi
9:53 PM76 °FClear.5 mph52%30.01 "Hg10 mi
8:53 PM80 °FSunny.3 mph44%30.00 "Hg10 mi
7:53 PM82 °FSunny.8 mph43%30.00 "Hg10 mi
6:53 PM85 °FSunny.6 mph39%30.00 "Hg10 mi
5:53 PM85 °FSunny.9 mph39%30.01 "Hg10 mi
4:53 PM85 °FSunny.9 mph37%30.03 "Hg10 mi
3:53 PM84 °FSunny.9 mph36%30.04 "Hg10 mi
2:53 PM82 °FSunny.9 mph41%30.06 "Hg10 mi
1:53 PM81 °FSunny.10 mph44%30.08 "Hg10 mi
12:53 PM78 °FSunny.9 mph48%30.10 "Hg10 mi
11:53 AM76 °FSunny.8 mph50%30.11 "Hg10 mi
10:53 AM74 °FSunny.7 mph53%30.12 "Hg10 mi
9:53 AM71 °FSunny.6 mph59%30.12 "Hg10 mi
8:53 AM68 °FSunny.5 mph65%30.14 "Hg10 mi
7:53 AM65 °FSunny.3 mph73%30.13 "Hg10 mi
6:53 AM63 °FSunny.5 mph78%30.12 "Hg10 mi
5:53 AM62 °FClear.3 mph78%30.11 "Hg10 mi
Weather by CustomWeather, © 2016

See weather overviewHow to use our weather pages